Date String (YYYY-MM-DD hh:mm:ss) UTC,Instrument flags,absolute air pressure of the measurement (hPa),sample flow rate (lpm),inlet stack bypass flow (lpm),air temperature of the measurement (°C),ambient temperature measured by the external sensor (°C),aerosol sample conditioner tube jacket temperature (°C),OPC LED temperature (°C),internal box temperature (°C),relative humidity of the measurement (%),span deviation,mass concentration of particles derived from Lorenz-Mie calculation of OPC scattering (μg/m³),mass concentration of particles derived from Lorenz-Mie calculation of OPC scattering (μg/m³),mass concentration of particles derived from Lorenz-Mie calculation of OPC scattering (μg/m³)
DateTimeUTC,F1_M11,P_M11,Q1_M11,Q2_M11,T1_M11,T2_M11,T3_M11,T4_M11,T5_M11,U1_M11,ZSPAN_M11,X0_M11,X2_M11,X1_M11
2024-02-12 08:00:00,SystemResetWarning,0827.8,4.99,000.00,018.5,018.0,000.0,026.8,020.0,11.2,0000.0,0002.88,0002.20,0001.96
2024-02-12 08:01:00,SystemResetWarning,0827.8,5.00,000.00,018.4,017.9,000.0,026.8,020.0,11.2,0000.0,0002.84,0002.18,0001.95
2024-02-12 08:02:00,SystemResetWarning,0827.9,5.00,000.00,018.4,017.8,000.0,026.9,020.0,11.3,0000.0,0002.80,0002.16,0001.93
2024-02-12 08:03:00,SystemResetWarning,0827.8,5.00,000.00,018.4,017.7,000.0,026.9,020.0,11.3,0000.0,0002.76,0002.14,0001.92
2024-02-12 08:04:00,SystemResetWarning,0827.8,5.01,000.00,018.4,017.7,000.0,026.9,020.0,11.2,0000.0,0002.77,0002.14,0001.91
2024-02-12 08:05:00,SystemResetWarning,0827.7,5.00,000.00,018.3,017.6,000.0,026.9,020.0,11.3,0000.0,0002.73,0002.13,0001.91
2024-02-12 08:06:00,SystemResetWarning,0827.8,5.00,000.00,018.3,017.6,000.0,026.9,020.0,11.3,0000.0,0002.75,0002.11,0001.91
2024-02-12 08:07:00,SystemResetWarning,0827.8,5.00,000.00,018.3,017.6,000.0,026.9,020.0,11.3,0000.0,0003.23,0002.12,0001.92
2024-02-12 08:08:00,SystemResetWarning,0827.8,5.00,000.00,018.3,017.5,000.0,026.9,020.0,11.4,0000.0,0003.19,0002.10,0001.90
2024-02-12 08:09:00,SystemResetWarning,0827.7,4.99,000.00,018.3,017.5,000.0,026.9,020.0,11.4,0000.0,0003.16,0002.08,0001.88
2024-02-12 08:10:00,SystemResetWarning,0827.8,5.00,000.00,018.3,017.5,000.0,026.9,020.0,11.3,0000.0,0003.06,0002.05,0001.88
2024-02-12 08:11:00,SystemResetWarning,0827.8,5.01,000.00,018.3,017.9,000.0,027.0,020.3,11.3,0000.0,0003.12,0002.04,0001.88
2024-02-12 08:12:00,SystemResetWarning,0827.8,5.01,000.00,018.6,018.7,000.0,027.1,020.8,11.2,0000.0,0003.14,0002.05,0001.88
2024-02-12 08:13:00,SystemResetWarning,0827.7,4.99,000.00,018.7,018.9,000.0,027.0,020.8,11.0,0000.0,0003.16,0002.07,0001.88
2024-02-12 08:14:00,SystemResetWarning,0827.8,4.99,000.00,018.7,018.7,000.0,027.0,020.5,11.0,0000.0,0003.16,0002.07,0001.87
2024-02-12 08:15:00,SystemResetWarning,0827.8,5.02,000.00,018.6,018.5,000.0,026.9,020.3,11.0,0000.0,0003.31,0002.05,0001.87
2024-02-12 08:16:00,SystemResetWarning,0827.8,4.99,000.00,018.6,018.3,000.0,026.9,020.2,11.0,0000.0,0003.45,0002.05,0001.85
2024-02-12 08:17:00,SystemResetWarning,0827.8,4.99,000.00,018.5,018.2,000.0,026.9,020.1,11.1,0000.0,0003.39,0002.04,0001.84
2024-02-12 08:18:00,SystemResetWarning,0827.7,5.00,000.00,018.5,018.0,000.0,026.8,020.1,11.2,0000.0,0002.78,0001.99,0001.82
2024-02-12 08:19:00,SystemResetWarning,0827.7,5.01,000.00,018.5,017.9,000.0,026.8,020.0,11.2,0000.0,0002.80,0001.98,0001.81
2024-02-12 08:20:00,SystemResetWarning,0827.7,5.00,000.00,018.4,017.8,000.0,026.8,020.0,11.1,0000.0,0002.81,0001.97,0001.81
2024-02-12 08:21:00,SystemResetWarning,0827.7,5.00,000.00,018.4,017.8,000.0,026.8,020.0,11.1,0000.0,0002.80,0001.96,0001.80
2024-02-12 08:22:00,SystemResetWarning,0827.7,5.01,000.00,018.4,017.7,000.0,026.9,020.0,11.2,0000.0,0002.69,0001.94,0001.79
2024-02-12 08:23:00,SystemResetWarning,0827.7,5.00,000.00,018.4,017.7,000.0,026.9,020.0,11.1,0000.0,0002.75,0001.93,0001.78
2024-02-12 08:24:00,SystemResetWarning,0827.7,5.00,000.00,018.3,017.6,000.0,026.9,020.0,11.1,0000.0,0002.83,0001.93,0001.76
2024-02-12 08:25:00,SystemResetWarning,0827.7,5.00,000.00,018.3,017.6,000.0,026.9,020.0,11.2,0000.0,0002.81,0001.91,0001.75
2024-02-12 08:26:00,SystemResetWarning,0827.7,5.01,000.00,018.3,017.6,000.0,026.9,020.0,11.1,0000.0,0002.52,0001.88,0001.74
2024-02-12 08:27:00,SystemResetWarning,0827.7,5.01,000.00,018.3,017.5,000.0,026.9,020.0,11.2,0000.0,0002.35,0001.86,0001.73
2024-02-12 08:28:00,SystemResetWarning,0827.7,5.00,000.00,018.3,017.5,000.0,026.9,020.0,11.3,0000.0,0002.43,0001.87,0001.73
2024-02-12 08:29:00,SystemResetWarning,0827.7,5.00,000.00,018.3,017.5,000.0,026.9,020.1,11.3,0000.0,0002.49,0001.85,0001.72
2024-02-12 08:30:00,SystemResetWarning,0827.7,5.01,000.00,018.4,018.2,000.0,027.0,020.4,11.3,0000.0,0002.42,0001.83,0001.71
2024-02-12 08:31:00,SystemResetWarning,0827.7,4.99,000.00,018.6,018.8,000.0,027.1,020.9,11.2,0000.0,0002.41,0001.81,0001.69
2024-02-12 08:32:00,SystemResetWarning,0827.7,4.99,000.00,018.7,018.8,000.0,027.0,020.7,11.0,0000.0,0002.41,0001.80,0001.67
2024-02-12 08:33:00,SystemResetWarning,0827.7,5.01,000.00,018.7,018.6,000.0,026.9,020.4,11.2,0000.0,0002.47,0001.82,0001.66
2024-02-12 08:34:00,SystemResetWarning,0827.7,5.01,000.00,018.6,018.5,000.0,026.9,020.3,11.2,0000.0,0002.38,0001.80,0001.64
2024-02-12 08:35:00,SystemResetWarning,0827.7,5.00,000.00,018.6,018.3,000.0,026.9,020.2,11.4,0000.0,0002.27,0001.76,0001.63
2024-02-12 08:36:00,SystemResetWarning,0827.7,5.00,000.00,018.5,018.1,000.0,026.9,020.1,11.3,0000.0,0002.24,0001.75,0001.63
2024-02-12 08:37:00,SystemResetWarning,0827.7,4.99,000.00,018.5,018.0,000.0,026.8,020.1,11.3,0000.0,0002.22,0001.74,0001.62
2024-02-12 08:38:00,SystemResetWarning,0827.7,4.99,000.00,018.5,017.9,000.0,026.8,020.0,11.4,0000.0,0002.22,0001.74,0001.61
2024-02-12 08:39:00,SystemResetWarning,0827.7,5.00,000.00,018.4,017.8,000.0,026.8,020.0,11.4,0000.0,0002.12,0001.71,0001.60
2024-02-12 08:40:00,SystemResetWarning,0827.7,5.01,000.00,018.4,017.8,000.0,026.8,020.0,11.3,0000.0,0002.00,0001.70,0001.60
2024-02-12 08:41:00,SystemResetWarning,0827.7,5.00,000.00,018.4,017.7,000.0,026.8,020.0,11.4,0000.0,0002.00,0001.70,0001.60
2024-02-12 08:42:00,SystemResetWarning,0827.7,5.00,000.00,018.4,017.7,000.0,026.8,020.0,11.3,0000.0,0002.03,0001.71,0001.60
2024-02-12 08:43:00,SystemResetWarning,0827.7,4.99,000.00,018.3,017.6,000.0,026.8,020.0,11.2,0000.0,0002.05,0001.72,0001.61
2024-02-12 08:44:00,SystemResetWarning,0827.7,4.99,000.00,018.3,017.6,000.0,026.8,020.0,11.2,0000.0,0001.98,0001.69,0001.61
2024-02-12 08:45:00,SystemResetWarning,0827.7,4.99,000.00,018.3,017.5,000.0,026.9,020.0,11.2,0000.0,0002.03,0001.70,0001.61
2024-02-12 08:46:00,SystemResetWarning,0827.7,5.00,000.00,018.3,017.5,000.0,026.9,020.0,11.3,0000.0,0002.07,0001.71,0001.60
2024-02-12 08:47:00,SystemResetWarning,0827.7,5.00,000.00,018.3,017.5,000.0,026.9,020.0,11.1,0000.0,0002.07,0001.71,0001.60
2024-02-12 08:48:00,SystemResetWarning,0827.7,5.01,000.00,018.4,018.1,000.0,027.0,020.4,11.2,0000.0,0002.13,0001.73,0001.61
2024-02-12 08:49:00,SystemResetWarning,0827.7,5.01,000.00,018.6,018.9,000.0,027.1,020.9,11.0,0000.0,0002.13,0001.73,0001.61
2024-02-12 08:50:00,SystemResetWarning,0827.7,4.99,000.00,018.7,018.9,000.0,027.0,020.8,11.0,0000.0,0002.13,0001.72,0001.61
2024-02-12 08:51:00,SystemResetWarning,0827.7,4.98,000.00,018.7,018.8,000.0,027.0,020.5,11.0,0000.0,0002.16,0001.73,0001.60
2024-02-12 08:52:00,SystemResetWarning,0827.7,5.01,000.00,018.7,018.6,000.0,026.9,020.4,11.0,0000.0,0002.18,0001.74,0001.61
2024-02-12 08:53:00,SystemResetWarning,0827.7,5.02,000.00,018.6,018.4,000.0,026.9,020.3,11.0,0000.0,0002.16,0001.73,0001.59
2024-02-12 08:54:00,SystemResetWarning,0827.7,5.00,000.00,018.6,018.2,000.0,026.9,020.2,11.0,0000.0,0002.13,0001.71,0001.57
2024-02-12 08:55:00,SystemResetWarning,0827.7,5.00,000.00,018.5,018.1,000.0,026.9,020.1,11.0,0000.0,0002.22,0001.73,0001.56
2024-02-12 08:56:00,SystemResetWarning,0827.7,4.99,000.00,018.5,018.0,000.0,026.8,020.1,11.1,0000.0,0002.34,0001.73,0001.56
2024-02-12 08:57:00,SystemResetWarning,0827.7,4.99,000.00,018.5,017.9,000.0,026.8,020.0,11.2,0000.0,0002.61,0001.73,0001.56
2024-02-12 08:58:00,SystemResetWarning,0827.7,5.02,000.00,018.4,017.8,000.0,026.8,020.0,11.1,0000.0,0002.63,0001.73,0001.54
2024-02-12 08:59:00,SystemResetWarning,0827.7,5.00,000.00,018.4,017.7,000.0,026.8,020.0,11.2,0000.0,0002.58,0001.71,0001.53
